Location: Anaheim
(33.8350°N, 117.9140°W)
Time: 15:22:43
(UTC-08:00)

Amateur Radio Satellites - All Passes

Search period start: 11 February 2016 14:52
Search period end: 12 February 2016 14:52
Location: Anaheim, 33.8350°N, 117.9140°W

Satellite Date Start Highest point End Downlink Frequencies (MHz)
Time Altitude Azimuth
AO-7 11 Feb 14:58:37 15:07:00 85° 252° (WSW) 15:15:26 29.400- 29.500
SO-50 11 Feb 15:00:35 15:02:04 11° 254° (WSW) 15:03:32 436.795
STARS 11 Feb 15:08:22 15:12:12 29° 98° (E) 15:16:00 437.465
Cosmos 2504 11 Feb 15:08:36 15:16:30 41° 76° (ENE) 15:23:51 435.465 / 435.565
SWISSCUBE 11 Feb 15:15:26 15:18:01 15° 294° (WNW) 15:20:35 437.505
BEESAT 2 11 Feb 15:16:05 15:17:17 11° 108° (ESE) 15:18:30 435.950
M-CUBED/EXP-1 PRIME 11 Feb 15:27:37 15:31:14 50° 255° (WSW) 15:34:38 437.505
KKS-1 11 Feb 15:30:05 15:34:31 74° 284° (WNW) 15:38:54 437.445
AUBIESAT-1 11 Feb 15:35:41 15:39:16 49° 254° (WSW) 15:42:38 437.475
MOZHAYETS 4 11 Feb 15:37:26 15:41:55 48° 99° (E) 15:46:24
HORYU 2 11 Feb 15:51:24 15:55:45 61° 259° (WSW) 16:00:08 437.375
CUTE-I 11 Feb 16:14:18 16:17:31 16° 65° (ENE) 16:20:44 437.470
BEESAT 3 11 Feb 16:22:57 16:26:52 61° 300° (WNW) 16:30:49 437.485
CUBESAT XI-V 11 Feb 16:25:14 16:27:38 14° 93° (E) 16:30:01 437.345
LilacSat-2 11 Feb 16:25:23 16:26:12 11° 68° (ENE) 16:27:02 437.200
Cubesat XI-IV 11 Feb 16:27:43 16:31:44 22° 67° (ENE) 16:35:47 437.490
RS-15 11 Feb 16:38:18 16:43:05 13° 13° (NNE) 16:47:56 29.354- 29.394
STARS 11 Feb 16:45:12 16:48:21 20° 291° (WNW) 16:51:29 437.465
Cosmos 2491 11 Feb 16:47:39 16:52:47 17° 293° (WNW) 16:57:58 435.465 / 435.565
BEESAT 2 11 Feb 16:50:51 16:54:43 47° 301° (WNW) 16:58:37 435.950
AO-7 11 Feb 16:57:08 17:00:40 13° 268° (W) 17:04:13 29.400- 29.500
Cosmos 2504 11 Feb 17:02:14 17:09:37 35° 274° (W) 17:16:33 435.465 / 435.565
GOMX 1 11 Feb 17:13:13 17:16:30 17° 68° (ENE) 17:19:43 467.674
MOZHAYETS 4 11 Feb 17:16:13 17:18:38 14° 293° (WNW) 17:21:05
AIST 2 11 Feb 17:24:09 17:27:50 31° 113° (ESE) 17:31:32 435.215
O/OREOS (USA 219) 11 Feb 17:34:25 17:39:00 83° 252° (WSW) 17:43:36 437.305
CUTE-I 11 Feb 17:51:53 17:57:03 54° 259° (W) 18:02:18 437.470
BRITE-PL 11 Feb 17:53:00 17:58:42 83° 77° (ENE) 18:04:18 437.365/2234.400
STRAND 1 11 Feb 17:53:45 17:56:39 15° 93° (E) 17:59:32 437.568
LilacSat-2 11 Feb 17:56:30 18:00:07 41° 261° (W) 18:03:44 437.200
CUBESAT XI-V 11 Feb 18:00:43 18:05:14 46° 286° (WNW) 18:09:41 437.345
PCSat 11 Feb 18:00:57 18:02:18 11° 47° (NE) 18:03:38 145.827
Cubesat XI-IV 11 Feb 18:06:36 18:11:31 39° 261° (W) 18:16:29 437.490
GONETS M04 11 Feb 18:16:22 18:22:23 20° 69° (ENE) 18:28:21
AO-85 11 Feb 18:19:08 18:23:48 36° 54° (NE) 18:28:06 145.980
DOVE 4 11 Feb 18:20:21 18:25:04 39° 73° (ENE) 18:29:35 437.250
CUTE 1.7 + AOD 2 11 Feb 18:41:07 18:44:20 22° 70° (ENE) 18:47:34 437.475
PRISM 11 Feb 18:43:12 18:44:38 11° 93° (E) 18:46:02 437.425
SEEDS 11 Feb 18:44:18 18:47:04 17° 69° (ENE) 18:49:50 437.485
GOMX 1 11 Feb 18:48:51 18:54:09 54° 260° (W) 18:59:16 467.674
RS-15 11 Feb 18:50:07 19:00:59 36° 46° (NE) 19:11:54 29.354- 29.394
HO-68 11 Feb 18:53:03 18:59:55 52° 70° (ENE) 19:06:51 435.675
AAUSAT CUBESAT 2 11 Feb 18:53:59 18:55:53 13° 67° (ENE) 18:57:46 437.432
CINEMA 3 11 Feb 19:00:08 19:04:16 33° 73° (ENE) 19:08:14 145.822/145.860
AIST 2 11 Feb 19:03:15 19:06:21 20° 307° (NW) 19:09:28 435.215
CANX-2 11 Feb 19:25:25 19:29:38 90° 51° (NE) 19:33:52 2200.000
STRAND 1 11 Feb 19:31:04 19:36:03 52° 287° (WNW) 19:41:02 437.568
BRITE-PL 11 Feb 19:36:22 19:37:35 11° 270° (W) 19:38:49 437.365/2234.400
ZACube-1 11 Feb 19:40:35 19:42:47 14° 68° (ENE) 19:44:58 437.345
PCSat 11 Feb 19:41:04 19:46:31 82° 64° (ENE) 19:51:55 145.827
FUNcube-1 11 Feb 19:48:03 19:50:40 16° 69° (ENE) 19:53:17 145.935
DELFI C3 11 Feb 19:51:36 19:53:06 12° 67° (ENE) 19:54:35 145.870
DOVE 4 11 Feb 19:59:12 20:02:47 19° 265° (W) 20:06:16 437.250
COMPASS 1 11 Feb 20:00:13 20:04:20 73° 258° (WSW) 20:08:31 437.405
AO-85 11 Feb 20:00:20 20:03:59 21° 252° (WSW) 20:07:24 145.980
Cosmos 2499 11 Feb 20:03:33 20:11:17 42° 76° (ENE) 20:18:25 435.465 / 435.565
GONETS M04 11 Feb 20:11:12 20:19:58 75° 267° (W) 20:28:47
Oscar 11 11 Feb 20:15:57 20:20:06 51° 75° (ENE) 20:24:17 145.826/435.025
PRISM 11 Feb 20:16:10 20:20:08 44° 287° (WNW) 20:24:04 437.425
CUTE 1.7 + AOD 2 11 Feb 20:16:36 20:20:01 24° 264° (W) 20:23:28 437.475
SEEDS 11 Feb 20:18:50 20:22:31 30° 263° (W) 20:26:13 437.485
UWE-3 11 Feb 20:25:20 20:29:36 76° 76° (ENE) 20:33:47 435.000/436.395/437.385
AAUSAT CUBESAT 2 11 Feb 20:27:05 20:30:58 41° 261° (W) 20:34:54 437.432
CUBEBUG 2 11 Feb 20:29:09 20:33:29 66° 259° (W) 20:37:41 437.445
CINEMA 3 11 Feb 20:38:09 20:41:24 19° 265° (W) 20:44:34 145.822/145.860
HO-68 11 Feb 20:42:10 20:47:50 25° 264° (W) 20:53:33 435.675
AIST 1 11 Feb 20:59:43 21:03:50 41° 80° (E) 21:07:53
RS-15 11 Feb 21:02:13 21:14:19 69° 247° (WSW) 21:26:27 29.354- 29.394
ISS 11 Feb 21:09:45 21:12:32 25° 36° (NE) 21:15:18 145.825
HUMSAT D 11 Feb 21:14:29 21:18:25 50° 75° (ENE) 21:22:23 437.325/437.525
ZACube-1 11 Feb 21:14:49 21:18:45 38° 261° (W) 21:22:38 437.345
FUNcube-1 11 Feb 21:22:54 21:26:40 32° 262° (W) 21:30:24 145.935
DELFI C3 11 Feb 21:23:51 21:27:35 41° 261° (W) 21:31:22 145.870
VELOX 1 11 Feb 21:35:00 21:37:45 16° 67° (ENE) 21:40:29 145.980
UNISAT 6 11 Feb 21:46:49 21:50:50 35° 98° (E) 21:54:55 437.425
AISAT 11 Feb 21:51:01 21:54:42 26° 70° (ENE) 21:58:23 437.250
UKube-1 11 Feb 21:51:49 21:55:12 22° 70° (ENE) 21:58:34 .
Oscar 11 11 Feb 21:55:42 21:56:29 10° 268° (W) 21:57:15 145.826/435.025
PHONESAT 2.4 11 Feb 21:55:56 21:57:45 14° 142° (SE) 21:59:36 2401.200-2431.200
Cosmos 2499 11 Feb 21:57:06 22:04:03 32° 275° (W) 22:10:34 435.465 / 435.565
CUBEBUG 1 11 Feb 22:04:04 22:07:51 28° 71° (ENE) 22:11:38 437.445
POPSAT HIP 1 11 Feb 22:05:48 22:06:43 11° 92° (E) 22:07:39 437.405
DX 1 11 Feb 22:07:01 22:11:07 40° 73° (ENE) 22:15:14 434.975-435.025
NANOSAT C BR1 11 Feb 22:08:38 22:10:02 11° 93° (E) 22:11:25 145.865
DUCHIFAT 1 11 Feb 22:09:19 22:10:25 11° 93° (E) 22:11:31 145.980
GONETS M04 11 Feb 22:13:49 22:15:12 10° 284° (WNW) 22:16:35
QB50P1 11 Feb 22:16:44 22:19:17 16° 94° (E) 22:21:49 145.935-145.965
ESTCUBE 1 11 Feb 22:20:56 22:25:24 63° 75° (ENE) 22:29:54 437.505/2401.250
ANTELSAT 11 Feb 22:31:33 22:35:54 67° 283° (WNW) 22:40:19 437.575/2403.000
TIGRISAT 11 Feb 22:37:41 22:41:58 59° 285° (WNW) 22:46:21 435.000
AIST 1 11 Feb 22:39:20 22:40:58 12° 274° (W) 22:42:35
50 SAT 11 Feb 22:44:10 22:47:46 53° 260° (W) 22:51:25 437.505
ISS 11 Feb 22:46:15 22:48:53 23° 231° (SW) 22:51:30 145.825
BUGSAT 1 11 Feb 22:59:21 23:02:32 22° 96° (E) 23:05:42 437.445
POLYITAN 1 11 Feb 23:08:51 23:13:04 73° 101° (E) 23:17:16 437.675
QB50P2 11 Feb 23:09:24 23:13:37 77° 103° (ESE) 23:17:49 145.880/145.840
VELOX 1 11 Feb 23:09:43 23:13:52 38° 261° (W) 23:18:04 145.980
RS-15 11 Feb 23:20:50 23:24:33 12° 264° (W) 23:28:17 29.354- 29.394
UNISAT 6 11 Feb 23:24:26 23:27:16 17° 291° (WNW) 23:30:08 437.425
UKube-1 11 Feb 23:27:30 23:31:05 25° 263° (W) 23:34:42 .
AISAT 11 Feb 23:27:31 23:31:05 23° 264° (W) 23:34:41 437.250
PHONESAT 2.4 11 Feb 23:31:24 23:34:41 87° 336° (NNW) 23:37:59 2401.200-2431.200
SPROUT 11 Feb 23:31:58 23:36:16 79° 259° (W) 23:40:34 437.525
TISAT 1 11 Feb 23:32:38 23:36:27 34° 73° (ENE) 23:40:17 437.305
POPSAT HIP 1 11 Feb 23:38:42 23:42:44 48° 286° (WNW) 23:46:46 437.405
CUBEBUG 1 11 Feb 23:40:45 23:44:05 21° 265° (W) 23:47:27 437.445
NANOSAT C BR1 11 Feb 23:41:58 23:45:57 44° 286° (WNW) 23:49:56 145.865
DUCHIFAT 1 11 Feb 23:42:19 23:46:20 46° 286° (WNW) 23:50:19 145.980
CUSAT 1 11 Feb 23:44:03 23:49:20 20° 84° (E) 23:54:40 437.405
DX 1 11 Feb 23:45:07 23:47:27 14° 266° (W) 23:49:45 434.975-435.025
QB50P1 11 Feb 23:51:21 23:55:07 33° 288° (WNW) 23:58:53 145.935-145.965
JAS-2 12 Feb 00:16:52 00:18:23 11° 90° (E) 00:19:54 435.910
BUGSAT 1 12 Feb 00:34:44 00:37:47 21° 290° (WNW) 00:40:50 437.445
DANDE 12 Feb 00:35:20 00:41:43 29° 85° (E) 00:48:37 436.750
SWISSCUBE 12 Feb 00:38:46 00:43:07 37° 71° (ENE) 00:47:30 437.505
BEESAT 3 12 Feb 00:44:42 00:47:49 22° 54° (NE) 00:50:54 437.485
Cosmos 2491 12 Feb 01:02:00 01:09:47 34° 75° (ENE) 01:17:32 435.465 / 435.565
PHONESAT 2.4 12 Feb 01:09:19 01:12:12 28° 351° (N) 01:15:05 2401.200-2431.200
TISAT 1 12 Feb 01:09:40 01:12:11 15° 266° (W) 01:14:43 437.305
BEESAT 2 12 Feb 01:12:59 01:16:26 28° 55° (NE) 01:19:52 435.950
ITUPSAT 1 12 Feb 01:16:24 01:21:09 86° 79° (E) 01:25:58 437.325
CUSAT 1 12 Feb 01:22:50 01:30:45 78° 278° (W) 01:38:51 437.405
Oscar 19 12 Feb 01:22:50 01:28:00 89° 268° (W) 01:33:06 437.125/150
BEESAT 12 Feb 01:23:17 01:28:02 78° 258° (WSW) 01:32:49 436.000
YUBILEINY 12 Feb 01:46:18 01:53:45 32° 85° (E) 02:01:14 435.215
JAS-2 12 Feb 01:58:40 02:04:04 63° 286° (WNW) 02:09:10 435.910
STARS 12 Feb 02:02:13 02:05:04 17° 68° (ENE) 02:07:56 437.465
Gurwin Techsat 1B 12 Feb 02:13:07 02:18:27 82° 284° (WNW) 02:23:46 435.225
DANDE 12 Feb 02:16:37 02:24:07 55° 283° (WNW) 02:32:26 436.750
SWISSCUBE 12 Feb 02:17:45 02:20:59 18° 265° (W) 02:24:15 437.505
BEESAT 3 12 Feb 02:22:16 02:25:29 24° 249° (WSW) 02:28:41 437.485
KKS-1 12 Feb 02:24:00 02:28:24 60° 75° (ENE) 02:32:48 437.445
MOZHAYETS 4 12 Feb 02:35:47 02:39:41 28° 71° (ENE) 02:43:36
ITAMSAT 1 12 Feb 02:36:55 02:42:11 86° 103° (ESE) 02:47:25 435.822/435.867
PHONESAT 2.4 12 Feb 02:47:10 02:50:00 27° 8° (N) 02:52:51 2401.200-2431.200
BEESAT 2 12 Feb 02:51:18 02:54:07 19° 250° (WSW) 02:56:55 435.950
Cosmos 2491 12 Feb 02:58:31 03:06:37 44° 272° (W) 03:14:46 435.465 / 435.565
AO-7 12 Feb 03:05:04 03:12:51 42° 101° (E) 03:20:33 29.400- 29.500
CUSAT 1 12 Feb 03:10:07 03:14:05 14° 294° (WNW) 03:18:04 437.405
M-CUBED/EXP-1 PRIME 12 Feb 03:12:21 03:13:26 11° 100° (E) 03:14:33 437.505
AUBIESAT-1 12 Feb 03:19:46 03:21:02 11° 100° (E) 03:22:20 437.475
AIST 2 12 Feb 03:26:56 03:31:05 84° 61° (ENE) 03:35:10 435.215
SO-50 12 Feb 03:27:28 03:32:09 50° 114° (ESE) 03:36:56 436.795
STARS 12 Feb 03:37:07 03:41:08 35° 262° (W) 03:45:11 437.465
Cosmos 2504 12 Feb 03:40:52 03:48:33 39° 87° (E) 03:56:31 435.465 / 435.565
YUBILEINY 12 Feb 03:41:49 03:50:09 47° 282° (WNW) 03:58:35 435.215
HORYU 2 12 Feb 03:46:24 03:50:25 33° 98° (E) 03:54:26 437.375
MOZHAYETS 4 12 Feb 04:13:19 04:16:48 22° 265° (W) 04:20:20
PHONESAT 2.4 12 Feb 04:24:17 04:27:34 78° 26° (NNE) 04:30:49 2401.200-2431.200
M-CUBED/EXP-1 PRIME 12 Feb 04:44:55 04:48:06 34° 290° (WNW) 04:51:29 437.505
Cubesat XI-IV 12 Feb 04:50:33 04:52:12 11° 92° (E) 04:53:50 437.490
AUBIESAT-1 12 Feb 04:52:24 04:55:38 34° 290° (WNW) 04:59:03 437.475
AO-7 12 Feb 04:57:59 05:05:25 38° 296° (WNW) 05:12:49 29.400- 29.500
CUBESAT XI-V 12 Feb 04:59:33 05:04:13 77° 258° (WSW) 05:08:57 437.345
STRAND 1 12 Feb 05:06:20 05:09:14 15° 65° (ENE) 05:12:09 437.568
SO-50 12 Feb 05:09:29 05:12:55 19° 311° (NW) 05:16:23 436.795
HORYU 2 12 Feb 05:23:39 05:26:43 19° 292° (WNW) 05:29:47 437.375
Cosmos 2504 12 Feb 05:33:51 05:41:45 41° 284° (WNW) 05:50:00 435.465 / 435.565
LilacSat-2 12 Feb 05:34:04 05:37:13 25° 97° (E) 05:40:21 437.200
PHONESAT 2.4 12 Feb 06:02:27 06:04:31 16° 217° (SW) 06:06:34 2401.200-2431.200
BRITE-PL 12 Feb 06:03:16 06:07:21 32° 96° (E) 06:11:11 437.365/2234.400
O/OREOS (USA 219) 12 Feb 06:05:07 06:08:07 18° 100° (E) 06:11:09 437.305
CUTE-I 12 Feb 06:12:42 06:18:07 84° 104° (ESE) 06:23:30 437.470
DOVE 4 12 Feb 06:25:50 06:26:57 11° 92° (E) 06:28:05 437.250
Cubesat XI-IV 12 Feb 06:27:19 06:32:42 71° 285° (WNW) 06:38:02 437.490
STRAND 1 12 Feb 06:42:56 06:47:54 54° 259° (W) 06:52:56 437.568
JUGNU 12 Feb 06:44:17 06:47:52 16° 170° (S) 06:51:27 437.505
GOMX 1 12 Feb 06:55:17 06:59:33 61° 101° (E) 07:03:39 467.674
PRISM 12 Feb 07:01:20 07:05:29 75° 76° (ENE) 07:09:40 437.425
LilacSat-2 12 Feb 07:08:51 07:11:19 17° 290° (WNW) 07:13:47 437.200
GONETS M04 12 Feb 07:12:52 07:19:32 25° 83° (E) 07:26:12
CANX-2 12 Feb 07:15:07 07:18:22 21° 95° (E) 07:21:36 2200.000
BRITE-PL 12 Feb 07:42:29 07:45:32 18° 293° (WNW) 07:48:28 437.365/2234.400
O/OREOS (USA 219) 12 Feb 07:43:12 07:47:13 32° 295° (WNW) 07:51:17 437.305
COMPASS 1 12 Feb 07:47:38 07:51:01 23° 96° (E) 07:54:24 437.405
CUTE-I 12 Feb 07:56:17 07:57:23 11° 298° (WNW) 07:58:29 437.470
DOVE 4 12 Feb 08:00:57 08:04:55 43° 286° (WNW) 08:08:49 437.250
CUTE 1.7 + AOD 2 12 Feb 08:04:24 08:08:42 74° 102° (ESE) 08:12:59 437.475
SEEDS 12 Feb 08:06:02 08:10:14 56° 100° (E) 08:14:25 437.485
Oscar 11 12 Feb 08:08:50 08:10:48 13° 93° (E) 08:12:45 145.826/435.025
HO-68 12 Feb 08:12:10 08:19:24 78° 104° (ESE) 08:26:35 435.675
AAUSAT CUBESAT 2 12 Feb 08:13:14 08:17:10 38° 98° (E) 08:21:05 437.432
UWE-3 12 Feb 08:19:27 08:22:33 20° 95° (E) 08:25:43 435.000/436.395/437.385
CUBEBUG 2 12 Feb 08:23:53 08:27:40 31° 98° (E) 08:31:32 437.445
SRMSAT 12 Feb 08:25:51 08:29:00 15° 168° (SSE) 08:32:08 437.500
AO-85 12 Feb 08:28:57 08:33:33 32° 111° (ESE) 08:38:23 145.980
JUGNU 12 Feb 08:31:57 08:36:13 20° 180° (S) 08:40:28 437.505
Cosmos 2499 12 Feb 08:33:44 08:41:37 40° 87° (E) 08:49:41 435.465 / 435.565
CINEMA 3 12 Feb 08:35:09 08:39:13 56° 285° (WNW) 08:43:22 145.822/145.860
PCSat 12 Feb 08:37:29 08:41:04 18° 105° (ESE) 08:44:39 145.827
UNISAT 6 12 Feb 08:42:53 08:45:57 19° 69° (ENE) 08:49:00 437.425
CANX-2 12 Feb 08:50:34 08:54:10 26° 288° (WNW) 08:57:45 2200.000
HUMSAT D 12 Feb 09:04:03 09:05:20 11° 93° (E) 09:06:36 437.325/437.525
DELFI C3 12 Feb 09:05:44 09:09:21 31° 97° (E) 09:12:58 145.870
ZACube-1 12 Feb 09:06:26 09:10:34 50° 99° (E) 09:14:48 437.345
GONETS M04 12 Feb 09:07:11 09:15:40 57° 280° (W) 09:24:14
RS-15 12 Feb 09:11:06 09:19:38 27° 102° (ESE) 09:28:23 29.354- 29.394
FUNcube-1 12 Feb 09:13:59 09:18:12 59° 101° (E) 09:22:29 145.935
COMPASS 1 12 Feb 09:23:08 09:26:28 23° 289° (WNW) 09:29:48 437.405
AIST 1 12 Feb 09:24:59 09:28:50 30° 90° (E) 09:32:41
ANTELSAT 12 Feb 09:26:29 09:30:45 65° 75° (ENE) 09:34:59 437.575/2403.000
TIGRISAT 12 Feb 09:32:21 09:36:39 73° 76° (ENE) 09:40:55 435.000
Oscar 11 12 Feb 09:42:58 09:47:05 43° 286° (WNW) 09:51:13 145.826/435.025
SEEDS 12 Feb 09:44:45 09:45:25 10° 294° (WNW) 09:46:05 437.485
BUGSAT 1 12 Feb 09:47:53 09:48:41 10° 66° (ENE) 09:49:30 437.445
AAUSAT CUBESAT 2 12 Feb 09:50:02 09:52:18 14° 292° (WNW) 09:54:34 437.432
UWE-3 12 Feb 09:55:23 09:58:59 27° 288° (WNW) 10:02:39 435.000/436.395/437.385
POLYITAN 1 12 Feb 09:57:55 10:01:41 32° 72° (ENE) 10:05:26 437.675
QB50P2 12 Feb 09:58:22 10:02:10 33° 72° (ENE) 10:05:59 145.880/145.840
CUBEBUG 2 12 Feb 10:01:16 10:04:03 17° 291° (WNW) 10:06:53 437.445
HO-68 12 Feb 10:01:51 10:06:16 18° 301° (WNW) 10:10:41 435.675
AO-85 12 Feb 10:09:19 10:14:03 32° 307° (NW) 10:18:56 145.980
SRMSAT 12 Feb 10:13:15 10:17:28 20° 177° (S) 10:21:42 437.500
ESTCUBE 1 12 Feb 10:18:28 10:21:34 18° 95° (E) 10:24:38 437.505/2401.250
UNISAT 6 12 Feb 10:18:44 10:22:28 28° 263° (W) 10:26:11 437.425
PCSat 12 Feb 10:18:47 10:24:00 49° 299° (WNW) 10:29:16 145.827
50 SAT 12 Feb 10:20:13 10:22:52 18° 95° (E) 10:25:31 437.505
JUGNU 12 Feb 10:20:56 10:24:33 17° 190° (S) 10:28:10 437.505
Cosmos 2499 12 Feb 10:26:36 10:34:36 40° 284° (WNW) 10:42:49 435.465 / 435.565
POPSAT HIP 1 12 Feb 10:26:55 10:31:08 73° 75° (ENE) 10:35:20 437.405
NANOSAT C BR1 12 Feb 10:29:48 10:34:01 77° 76° (ENE) 10:38:14 145.865
DUCHIFAT 1 12 Feb 10:29:57 10:34:09 73° 77° (ENE) 10:38:21 145.980
HUMSAT D 12 Feb 10:37:08 10:41:09 46° 285° (WNW) 10:45:12 437.325/437.525
QB50P1 12 Feb 10:39:16 10:43:30 78° 258° (WSW) 10:47:44 145.935-145.965
DELFI C3 12 Feb 10:41:30 10:43:59 16° 291° (WNW) 10:46:28 145.870
ZACube-1 12 Feb 10:44:59 10:46:26 12° 293° (WNW) 10:47:54 437.345
AIST 1 12 Feb 11:03:27 11:06:26 18° 285° (WNW) 11:09:26
VELOX 1 12 Feb 11:03:31 11:07:49 51° 100° (E) 11:12:05 145.980
UKube-1 12 Feb 11:17:39 11:21:58 70° 102° (ESE) 11:26:15 .
BUGSAT 1 12 Feb 11:19:28 11:23:35 53° 259° (W) 11:27:41 437.445
RS-15 12 Feb 11:19:47 11:30:49 71° 301° (WNW) 11:42:29 29.354- 29.394
AISAT 12 Feb 11:20:38 11:25:03 89° 91° (E) 11:29:26 437.250
SPROUT 12 Feb 11:22:40 11:26:04 23° 96° (E) 11:29:28 437.525
DANDE 12 Feb 11:23:58 11:26:27 12° 61° (ENE) 11:28:42 436.750
CUBEBUG 1 12 Feb 11:32:02 11:36:24 84° 280° (W) 11:40:42 437.445
POLYITAN 1 12 Feb 11:34:50 11:37:32 16° 265° (W) 11:40:14 437.675
DX 1 12 Feb 11:34:53 11:39:09 59° 285° (WNW) 11:43:24 434.975-435.025
QB50P2 12 Feb 11:35:27 11:38:02 16° 266° (W) 11:40:38 145.880/145.840
50 SAT 12 Feb 11:53:45 11:56:49 23° 288° (WNW) 11:59:53 437.505
ESTCUBE 1 12 Feb 11:54:20 11:58:25 34° 288° (WNW) 12:02:29 437.505/2401.250
Gurwin Techsat 1B 12 Feb 11:54:35 11:56:17 12° 63° (ENE) 11:58:00 435.225
SRMSAT 12 Feb 12:02:04 12:05:59 18° 188° (S) 12:09:53 437.500
SO-50 12 Feb 12:03:45 12:06:59 18° 49° (NE) 12:10:08 436.795
YUBILEINY 12 Feb 12:04:14 12:06:49 11° 63° (ENE) 12:09:25 435.215
JAS-2 12 Feb 12:04:34 12:11:32 40° 70° (ENE) 12:17:57 435.910
CUSAT 1 12 Feb 12:06:51 12:11:57 57° 78° (ENE) 12:15:45 437.405
Oscar 19 12 Feb 12:35:36 12:40:47 88° 77° (ENE) 12:45:59 437.125/150
VELOX 1 12 Feb 12:42:08 12:43:48 12° 294° (WNW) 12:45:28 145.980
SWISSCUBE 12 Feb 12:44:34 12:46:45 13° 93° (E) 12:48:56 437.505
TISAT 1 12 Feb 12:55:35 12:59:45 74° 284° (WNW) 13:03:54 437.305
SPROUT 12 Feb 12:58:33 13:01:56 23° 289° (WNW) 13:05:18 437.525
DANDE 12 Feb 13:04:16 13:10:36 71° 265° (W) 13:15:14 436.750
ITUPSAT 1 12 Feb 13:21:13 13:25:26 30° 97° (E) 13:29:39 437.325
BEESAT 12 Feb 13:27:33 13:31:58 36° 99° (E) 13:36:22 436.000
Gurwin Techsat 1B 12 Feb 13:30:13 13:35:31 76° 258° (WSW) 13:40:51 435.225
RS-15 12 Feb 13:37:53 13:45:50 21° 328° (NNW) 13:54:08 29.354- 29.394
SO-50 12 Feb 13:43:10 13:47:45 48° 246° (WSW) 13:52:09 436.795
ISS 12 Feb 13:46:01 13:49:14 65° 134° (SE) 13:52:28 145.825
JAS-2 12 Feb 13:49:30 13:56:25 36° 262° (W) 14:02:52 435.910
ITAMSAT 1 12 Feb 13:50:55 13:56:06 88° 77° (ENE) 14:01:20 435.822/435.867
SRMSAT 12 Feb 13:53:36 13:54:25 10° 197° (SSW) 13:55:15 437.500
YUBILEINY 12 Feb 13:56:17 14:05:09 74° 83° (E) 14:13:55 435.215
Cosmos 2491 12 Feb 13:58:02 14:06:08 45° 88° (E) 14:14:13 435.465 / 435.565
AO-7 12 Feb 13:59:46 14:07:26 42° 65° (ENE) 14:15:06 29.400- 29.500
SWISSCUBE 12 Feb 14:20:07 14:24:48 52° 286° (WNW) 14:29:26 437.505
KKS-1 12 Feb 14:20:13 14:22:52 16° 94° (E) 14:25:31 437.445
HORYU 2 12 Feb 14:41:28 14:44:38 20° 69° (ENE) 14:47:48 437.375
